Location: Unspecified
(51.0000°N, 12.0000°E)
Time: 14:59:34
(UTC+02:00)

OTV 5 (USA 277) - Pass Details

Date: 26 April 2019
Orbit: 310 x 325 km, 54.5° (Epoch: 08 May)

Event Time Altitude Azimuth Distance (km) Brightness Sun altitude
Rises 23:40:01 0° 280° (W) 2,037 ? -22.4°
Reaches altitude 10° 23:42:03 10° 289° (WNW) 1,208 ? -22.6°
Enters shadow 23:43:08 20° 303° (WNW) 814 ? -22.6°
